Change the Weather History Date:

Saturday, October 5, 2013

  Actual Average Record
Temperature  
Mean Temperature 50 °F -  
Max Temperature 57 °F 64 °F 94 °F (1963)
Min Temperature 42 °F 41 °F 5 °F (1998)
Degree Days  
Heating Degree Days 16    
Moisture  
Dew Point 44 °F    
Average Humidity 82    
Maximum Humidity 100    
Minimum Humidity 58    
Precipitation  
Precipitation 0.02 in - - ()
Sea Level Pressure  
Sea Level Pressure 29.77 in    
Wind  
Wind Speed 10 mph (South)    
Max Wind Speed 18 mph    
Max Gust Speed 25 mph    
Visibility 9 miles    
Events      
Averages and records for this station are not official NWS values.
T = Trace of Precipitation, MM = Missing Value Source: NWS Daily Summary

Daily Weather History Graph

Daily Weather History Graph

Search for Another Location

Airport or City:

Trip Planner

Search our weather history database for the weather conditions in past years. The results will help you decide how hot, cold, wet, or windy it might be!

Date:

Astronomy

Oct. 05, 2013 Rise Set
Actual Time 7:26 AM CDT 6:55 PM CDT
Civil Twilight 6:56 AM CDT 7:24 PM CDT
Nautical Twilight 6:22 AM CDT 7:58 PM CDT
Astronomical Twilight 5:48 AM CDT 8:32 PM CDT
Moon 8:09 AM CDT (10/5) 7:10 PM CDT (10/5)
Length of Visible Light 12h 27m
Length of Day
11h 29m
New Moon, 1% of the Moon is Illuminated
Oct 5
New Moon
Oct 11
First Quarter
Oct 18
Full
Oct 26
Last Quarter
Nov 3
New

Hourly Weather History & Observations

Time (CDT) Temp. Windchill Dew Point Humidity Pressure Visibility Wind Dir Wind Speed Gust Speed Precip Events Conditions
12:14 AM 55.4 °F - 55.4 °F 100% 29.77 in 10.0 mi SE 12.7 mph - N/A   Overcast
12:34 AM 57.2 °F - 55.4 °F 94% 29.77 in 10.0 mi SE 11.5 mph 19.6 mph N/A   Overcast
12:54 AM 57.2 °F - 55.4 °F 94% 29.75 in 10.0 mi SE 13.8 mph - N/A   Overcast
1:14 AM 57.2 °F - 55.4 °F 94% 29.76 in 10.0 mi SE 12.7 mph - N/A   Overcast
1:34 AM 57.2 °F - 55.4 °F 94% 29.76 in 7.0 mi ESE 16.1 mph - N/A   Overcast
1:54 AM 55.4 °F - 55.4 °F 100% 29.75 in 5.0 mi SE 12.7 mph 18.4 mph N/A   Overcast
2:14 AM 57.2 °F - 57.2 °F 100% 29.75 in 7.0 mi ESE 13.8 mph - N/A   Overcast
2:34 AM 57.2 °F - 57.2 °F 100% 29.73 in 7.0 mi SE 12.7 mph 19.6 mph N/A   Overcast
2:54 AM 57.2 °F - 57.2 °F 100% 29.72 in 7.0 mi SE 15.0 mph 23.0 mph N/A   Overcast
3:14 AM 57.2 °F - 57.2 °F 100% 29.72 in 7.0 mi SE 15.0 mph - N/A   Overcast
3:34 AM 57.2 °F - 57.2 °F 100% 29.72 in 7.0 mi SE 16.1 mph 20.7 mph N/A   Overcast
3:54 AM 57.2 °F - 57.2 °F 100% 29.72 in 5.0 mi SE 18.4 mph 25.3 mph N/A   Overcast
4:14 AM 57.2 °F - 57.2 °F 100% 29.71 in 5.0 mi SSE 13.8 mph 24.2 mph N/A   Drizzle
4:34 AM 57.2 °F - 57.2 °F 100% 29.72 in 4.0 mi SW 13.8 mph 19.6 mph 0.01 in   Drizzle
4:54 AM 50.0 °F - 50.0 °F 100% 29.74 in 4.0 mi SW 13.8 mph 18.4 mph 0.02 in   Overcast
5:14 AM 50.0 °F - 50.0 °F 100% 29.74 in 7.0 mi SW 11.5 mph 19.6 mph N/A   Overcast
5:34 AM 46.4 °F 41.1 °F 46.4 °F 100% 29.75 in 10.0 mi SW 11.5 mph 16.1 mph N/A   Overcast
5:54 AM 44.6 °F 38.8 °F 44.6 °F 100% 29.76 in 10.0 mi SW 11.5 mph - N/A   Overcast
6:14 AM 44.6 °F 40.2 °F 44.6 °F 100% 29.77 in 10.0 mi WSW 8.1 mph 16.1 mph N/A   Scattered Clouds
6:34 AM 42.8 °F 36.2 °F 42.8 °F 100% 29.78 in 10.0 mi SW 12.7 mph 18.4 mph N/A   Scattered Clouds
6:54 AM 42.8 °F 38.0 °F 41.0 °F 93% 29.78 in 10.0 mi SW 8.1 mph - N/A   Scattered Clouds
7:14 AM 42.8 °F 38.0 °F 39.2 °F 87% 29.78 in 10.0 mi SW 8.1 mph - N/A   Scattered Clouds
7:34 AM 42.8 °F 39.3 °F 37.4 °F 81% 29.79 in 10.0 mi SSW 5.8 mph - N/A   Scattered Clouds
7:54 AM 42.8 °F 39.3 °F 39.2 °F 87% 29.80 in 10.0 mi South 5.8 mph - N/A   Mostly Cloudy
8:14 AM 42.8 °F 38.6 °F 39.2 °F 87% 29.79 in 10.0 mi South 6.9 mph - N/A   Mostly Cloudy
8:34 AM 42.8 °F 37.5 °F 39.2 °F 87% 29.79 in 10.0 mi South 9.2 mph - N/A   Scattered Clouds
8:54 AM 42.8 °F 38.6 °F 37.4 °F 81% 29.80 in 10.0 mi South 6.9 mph - N/A   Scattered Clouds
9:14 AM 42.8 °F 37.5 °F 37.4 °F 81% 29.80 in 10.0 mi South 9.2 mph - N/A   Scattered Clouds
9:34 AM 42.8 °F 37.0 °F 37.4 °F 81% 29.79 in 10.0 mi South 10.4 mph - N/A   Scattered Clouds
9:54 AM 44.6 °F 40.2 °F 37.4 °F 76% 29.79 in 10.0 mi South 8.1 mph - N/A   Clear
10:14 AM 44.6 °F 38.8 °F 37.4 °F 76% 29.79 in 10.0 mi South 11.5 mph 17.3 mph N/A   Clear
10:34 AM 44.6 °F 39.2 °F 37.4 °F 76% 29.79 in 10.0 mi South 10.4 mph - N/A   Scattered Clouds
10:53 AM 46.4 °F 40.4 °F 37.4 °F 71% 29.79 in 10.0 mi South 13.8 mph 17.3 mph N/A   Mostly Cloudy
11:14 AM 46.4 °F 41.5 °F 39.2 °F 76% 29.79 in 10.0 mi South 10.4 mph - N/A   Mostly Cloudy
11:34 AM 46.4 °F 42.4 °F 39.2 °F 76% 29.79 in 10.0 mi South 8.1 mph 17.3 mph N/A   Mostly Cloudy
11:54 AM 46.4 °F 41.9 °F 39.2 °F 76% 29.78 in 10.0 mi South 9.2 mph 18.4 mph N/A   Mostly Cloudy
12:14 PM 48.2 °F - 37.4 °F 66% 29.77 in 10.0 mi South 10.4 mph - N/A   Scattered Clouds
12:34 PM 48.2 °F - 39.2 °F 71% 29.78 in 10.0 mi South 13.8 mph 19.6 mph N/A   Mostly Cloudy
12:54 PM 50.0 °F - 39.2 °F 66% 29.78 in 10.0 mi South 12.7 mph 20.7 mph N/A   Mostly Cloudy
1:13 PM 50.0 °F - 39.2 °F 66% 29.78 in 10.0 mi South 10.4 mph 20.7 mph N/A   Scattered Clouds
1:34 PM 51.8 °F - 39.2 °F 62% 29.77 in 10.0 mi South 15.0 mph 18.4 mph N/A   Mostly Cloudy
1:54 PM 51.8 °F - 39.2 °F 62% 29.77 in 10.0 mi SSW 9.2 mph - N/A   Mostly Cloudy
2:14 PM 51.8 °F - 37.4 °F 58% 29.76 in 10.0 mi South 8.1 mph 17.3 mph N/A   Mostly Cloudy
2:34 PM 51.8 °F - 37.4 °F 58% 29.76 in 10.0 mi South 10.4 mph - N/A   Overcast
2:54 PM 51.8 °F - 37.4 °F 58% 29.76 in 10.0 mi SSW 8.1 mph - N/A   Overcast
3:14 PM 51.8 °F - 37.4 °F 58% 29.76 in 10.0 mi SW 9.2 mph - N/A   Overcast
3:34 PM 51.8 °F - 37.4 °F 58% 29.76 in 10.0 mi SSW 5.8 mph - N/A   Overcast
3:53 PM 51.8 °F - 39.2 °F 62% 29.76 in 10.0 mi WSW 5.8 mph - N/A   Overcast
4:14 PM 51.8 °F - 37.4 °F 58% 29.76 in 10.0 mi West 3.5 mph - N/A   Overcast
4:34 PM 51.8 °F - 39.2 °F 62% 29.77 in 10.0 mi WSW 6.9 mph - N/A   Overcast
4:53 PM 51.8 °F - 37.4 °F 58% 29.76 in 10.0 mi WSW 4.6 mph - N/A   Overcast
5:14 PM 50.0 °F - 39.2 °F 66% 29.76 in 10.0 mi West 4.6 mph - N/A   Scattered Clouds
5:34 PM 51.8 °F - 39.2 °F 62% 29.76 in 10.0 mi Calm Calm - N/A   Clear
5:53 PM 50.0 °F - 39.2 °F 66% 29.76 in 10.0 mi NW 3.5 mph - N/A   Clear
6:14 PM 50.0 °F - 39.2 °F 66% 29.77 in 10.0 mi Calm Calm - N/A   Scattered Clouds
6:34 PM 50.0 °F - 39.2 °F 66% 29.77 in 10.0 mi Calm Calm - N/A   Overcast
6:54 PM 48.2 °F - 41.0 °F 76% 29.76 in 10.0 mi Calm Calm - N/A   Scattered Clouds
7:14 PM 48.2 °F - 41.0 °F 76% 29.76 in 10.0 mi ENE 4.6 mph - N/A   Scattered Clouds
7:34 PM 46.4 °F 45.2 °F 41.0 °F 81% 29.77 in 10.0 mi NE 3.5 mph - N/A   Mostly Cloudy
7:54 PM 48.2 °F - 41.0 °F 76% 29.78 in 10.0 mi NE 3.5 mph - N/A   Overcast
8:13 PM 48.2 °F - 42.8 °F 82% 29.78 in 10.0 mi Calm Calm - N/A   Overcast
8:34 PM 48.2 °F - 42.8 °F 82% 29.78 in 10.0 mi Calm Calm - N/A   Overcast
8:54 PM 46.4 °F 45.2 °F 42.8 °F 87% 29.78 in 10.0 mi ENE 3.5 mph - N/A   Overcast
9:13 PM 46.4 °F 45.2 °F 42.8 °F 87% 29.78 in 10.0 mi NE 3.5 mph - N/A   Overcast
9:34 PM 46.4 °F - 42.8 °F 87% 29.77 in 10.0 mi Calm Calm - N/A   Overcast
9:54 PM 44.6 °F 43.1 °F 42.8 °F 93% 29.78 in 10.0 mi North 3.5 mph - N/A   Mostly Cloudy
10:13 PM 44.6 °F 42.2 °F 42.8 °F 93% 29.78 in 10.0 mi North 4.6 mph - N/A   Overcast
10:34 PM 46.4 °F 45.2 °F 42.8 °F 87% 29.78 in 10.0 mi North 3.5 mph - N/A   Overcast
10:54 PM 44.6 °F - 42.8 °F 93% 29.78 in 10.0 mi Calm Calm - N/A   Mostly Cloudy
11:14 PM 44.6 °F 42.2 °F 42.8 °F 93% 29.79 in 10.0 mi North 4.6 mph - N/A   Mostly Cloudy
11:34 PM 44.6 °F - 42.8 °F 93% 29.79 in 10.0 mi Calm Calm - N/A   Overcast
11:54 PM 44.6 °F - 44.6 °F 100% 29.78 in 10.0 mi Calm Calm - N/A   Mostly Cloudy